Terug naar catalogus

DELTA 1 DEB

ActiefUNKNOWN
NORAD 9835·DEBRIS·🇺🇸 United States

Gelanceerd Nov 6, 1973 vanaf Vandenberg Space Force Base

Loading…

Volgende Passages (komende 24 uur)

TLE

VersSource: Space-Track

Epoch: Sep 14, 2026, 09:13 UTC

1 09835U 73086GD  26257.38471559  .00000009  00000-0  69485-3 0  9997
2 09835 101.3258  52.0127 0667671 274.9431 103.5309 11.33509473596677

Volg DELTA 1 DEB in realtime met AllMySat

Download on the App Store